Location: Unspecified
(0.0000°N, 0.0000°E)
Time: 01:09:09
(UTC+00:00)

A-11 Canister half - Pass Details

Date: 08 February 2023
Orbit: 1526 x 1682 km, 47.3° (Epoch: 29 March)

Event Time Altitude Azimuth Distance (km) Brightness Sun altitude
Rises 15:42:10 0° 274° (W) 4,862 12.5 36.5°
Reaches altitude 10° 15:47:50 10° 249° (WSW) 3,907 12.5 35.2°
Maximum altitude 15:51:58 13° 224° (SW) 3,676 12.1 34.2°
Drops below altitude 10° 15:56:09 10° 199° (SSW) 3,938 11.7 33.2°
Sets 16:02:02 0° 173° (S) 4,935 11.8 31.8°
